Lake Charles, LA

8:40 AM CST on February 28, 2017 (GMT -0600)
Lake Charles Regional

Weather History for KLCH - May, 2013

Change the Weather History Date:

Wednesday, May 22, 2013

  Actual Average Record
Temperature  
Mean Temperature 80 °F 77 °F  
Max Temperature 86 °F 86 °F 100 °F (1915)
Min Temperature 73 °F 68 °F 50 °F (1901)
Degree Days  
Heating Degree Days 0 0  
Month to date heating degree days 24 0  
Since 1 July heating degree days 1267 1489  
Cooling Degree Days 15 12  
Month to date cooling degree days 154 212  
Year to date cooling degree days 332 420  
Growing Degree Days 28 (Base 50)    
Moisture  
Dew Point 71 °F    
Average Humidity 75    
Maximum Humidity 93    
Minimum Humidity 57    
Precipitation  
Precipitation 0.04 in 0.19 in 2.30 in (1907)
Month to date precipitation 5.75 3.50  
Year to date precipitation 29.41 19.18  
Snow  
Snow 0.00 in 0.00 in 0.00 in ()
Month to date snowfall 0.0 0.0  
Since 1 July snowfall 0.0 0.1  
Snow Depth 0.00 in    
Sea Level Pressure  
Sea Level Pressure 29.90 in    
Wind  
Wind Speed 5 mph (ESE)    
Max Wind Speed 10 mph    
Max Gust Speed 15 mph    
Visibility 10 miles    
Events Rain , Thunderstorm    
T = Trace of Precipitation, MM = Missing Value Source: NWS Daily Summary

Daily Weather History Graph

Daily Weather History Graph

Search for Another Location

Airport or City:

Trip Planner

Search our weather history database for the weather conditions in past years. The results will help you decide how hot, cold, wet, or windy it might be!

Date:

Astronomy

May. 22, 2013 Rise Set
Actual Time 6:15 AM CDT 8:04 PM CDT
Civil Twilight 5:48 AM CDT 8:30 PM CDT
Nautical Twilight 5:16 AM CDT 9:02 PM CDT
Astronomical Twilight 4:42 AM CDT 9:37 PM CDT
Moon 5:36 PM CDT (5/22) 4:08 AM CDT (5/22)
Length of Visible Light 14h 42m
Length of Day
13h 48m
Waxing Gibbous, 91% of the Moon is Illuminated
May 22
Waxing Gibbous
May 24
Full
May 31
Last Quarter
Jun 8
New
Jun 16
First Quarter

Hourly Weather History & Observations

Time (CDT) Temp. Heat Index Dew Point Humidity Pressure Visibility Wind Dir Wind Speed Gust Speed Precip Events Conditions
12:53 AM 78.1 °F - 73.9 °F 87% 29.90 in 10.0 mi North - - N/A   Overcast
1:53 AM 77.0 °F - 73.9 °F 90% 29.88 in 10.0 mi North - - N/A   Scattered Clouds
2:17 AM 77.0 °F - 75.2 °F 94% 29.85 in 9.0 mi North - - N/A   Mostly Cloudy
2:26 AM 78.8 °F - 75.2 °F 89% 29.86 in 9.0 mi North - - N/A   Mostly Cloudy
2:53 AM 78.1 °F - 73.9 °F 87% 29.88 in 10.0 mi North - - N/A   Overcast
3:16 AM 73.4 °F - 69.8 °F 88% 29.88 in 10.0 mi North - - 0.00 in Rain , Thunderstorm Light Thunderstorms and Rain
3:27 AM 71.6 °F - 66.2 °F 83% 29.87 in 10.0 mi North - - 0.00 in Rain , Thunderstorm Light Thunderstorms and Rain
3:40 AM 69.8 °F - 66.2 °F 88% 29.88 in 10.0 mi North - - 0.00 in   Overcast
3:53 AM 70.0 °F - 66.9 °F 90% 29.90 in 10.0 mi North - - 0.00 in   Overcast
4:51 AM 69.8 °F - 66.2 °F 88% 29.87 in 10.0 mi North - - 0.03 in Rain Light Rain
4:53 AM 69.1 °F - 66.9 °F 93% 29.89 in 10.0 mi North - - 0.03 in Rain Light Rain
5:20 AM 69.8 °F - 66.2 °F 88% 29.87 in 10.0 mi North - - 0.00 in Thunderstorm Mostly Cloudy
5:42 AM 69.8 °F - 66.2 °F 88% 29.87 in 10.0 mi North - - 0.00 in   Clear
5:53 AM 70.0 °F - 68.0 °F 93% 29.88 in 10.0 mi North - - 0.00 in   Partly Cloudy
6:21 AM 71.6 °F - 68.0 °F 88% 29.86 in 10.0 mi North - - 0.00 in Thunderstorm Scattered Clouds
6:53 AM 72.0 °F - 69.1 °F 91% 29.83 in 10.0 mi North - - 0.00 in Thunderstorm Partly Cloudy
7:10 AM 73.4 °F - 71.6 °F 94% 29.81 in 10.0 mi Variable 4.6 mph - N/A   Partly Cloudy
7:23 AM 73.4 °F - 71.6 °F 94% 29.84 in 10.0 mi Variable 4.6 mph 21.9 mph N/A Thunderstorm Scattered Clouds
7:44 AM 75.2 °F - 71.6 °F 89% 29.84 in 10.0 mi South 5.8 mph - N/A   Partly Cloudy
7:53 AM 75.9 °F - 73.0 °F 91% 29.87 in 10.0 mi South 8.1 mph - N/A   Clear
8:53 AM 78.1 °F - 75.0 °F 90% 29.93 in 10.0 mi NNW 3.5 mph - N/A   Overcast
9:00 AM 78.8 °F - 75.2 °F 89% 29.90 in 10.0 mi North 3.5 mph - N/A   Mostly Cloudy
9:07 AM 78.8 °F - 75.2 °F 89% 29.91 in 10.0 mi North 5.8 mph - N/A   Mostly Cloudy
9:15 AM 75.2 °F - 71.6 °F 89% 29.92 in 10.0 mi North 9.2 mph - N/A   Overcast
9:53 AM 75.0 °F - 70.0 °F 84% 29.96 in 10.0 mi NNE 8.1 mph - 0.00 in Rain Light Rain
10:28 AM 75.2 °F - 69.8 °F 83% 29.94 in 10.0 mi NE 6.9 mph - 0.00 in   Overcast
10:37 AM 75.2 °F - 69.8 °F 83% 29.95 in 10.0 mi NE 9.2 mph - 0.00 in   Overcast
10:48 AM 77.0 °F - 71.6 °F 83% 29.95 in 10.0 mi NE 8.1 mph - 0.00 in Rain Light Rain
10:53 AM 78.1 °F - 71.1 °F 79% 29.97 in 10.0 mi NE 10.4 mph - 0.00 in   Overcast
11:10 AM 78.8 °F - 71.6 °F 78% 29.94 in 10.0 mi NE 9.2 mph - N/A   Mostly Cloudy
11:53 AM 79.0 °F - 71.1 °F 77% 29.96 in 10.0 mi ENE 9.2 mph - N/A   Mostly Cloudy
12:53 PM 82.0 °F 86.7 °F 72.0 °F 71% 29.95 in 10.0 mi East 5.8 mph - N/A   Overcast
1:53 PM 84.0 °F 89.6 °F 72.0 °F 67% 29.94 in 10.0 mi Variable 5.8 mph - 0.00 in   Overcast
2:53 PM 84.9 °F 89.4 °F 70.0 °F 61% 29.93 in 10.0 mi SW 5.8 mph - N/A   Partly Cloudy
3:53 PM 86.0 °F 90.1 °F 69.1 °F 57% 29.91 in 10.0 mi South 8.1 mph - N/A   Clear
4:53 PM 84.9 °F 90.7 °F 72.0 °F 65% 29.90 in 10.0 mi South 9.2 mph - N/A   Partly Cloudy
5:53 PM 84.0 °F 88.4 °F 70.0 °F 63% 29.90 in 10.0 mi South 4.6 mph - N/A   Clear
6:53 PM 82.0 °F 86.3 °F 71.1 °F 69% 29.91 in 10.0 mi South 8.1 mph - N/A   Partly Cloudy
7:53 PM 79.0 °F - 71.1 °F 77% 29.92 in 10.0 mi South 4.6 mph - N/A   Clear
8:53 PM 77.0 °F - 72.0 °F 84% 29.93 in 10.0 mi South 3.5 mph - N/A   Clear
9:53 PM 77.0 °F - 73.0 °F 88% 29.94 in 10.0 mi SSE 4.6 mph - N/A   Clear
10:53 PM 75.0 °F - 72.0 °F 90% 29.96 in 10.0 mi Calm Calm - N/A   Partly Cloudy
11:53 PM 73.0 °F - 72.0 °F 96% 29.96 in 6.0 mi SE 3.5 mph - N/A   Clear